Regional Weather Roundup
Issued by NWS

Home | Current Version | Previous Version | Graphics & Text | Print | Product List | Glossary On
Versions: 1 2 3 4 5 6 7 8 9 10 11 12 13 14 15 16 17 18 19 20 21 22 23 24 25 26 27 28 29 30 31 32 33 34 35 36 37 38 39 40 41 42 43 44 45 46 47 48 49 50
947
ASUS45 KCYS 211410
RWRWY

WYOMING REGIONAL WEATHER ROUNDUP
NATIONAL WEATHER SERVICE CHEYENNE WY
800 AM MDT MON AUG 21 2017

NOTE:  "FAIR" INDICATES FEW OR NO CLOUDS BELOW 12,000 FEET
WITH NO SIGNIFICANT WEATHER AND/OR OBSTRUCTIONS TO VISIBILITY.

WYZ001-211500-
YELLOWSTONE NATIONAL PARK

CITY           SKY/WX    TMP DP  RH WIND       PRES   REMARKS
LK YELLOWSTONE   N/A     42  38  85 CALM      30.36R
W YELLOWSTONE  NOT AVBL

$$
WYZ002>013-054>058-071-098>099-211500-
NORTHERN WYOMING

CITY           SKY/WX    TMP DP  RH WIND       PRES   REMARKS
JACKSON        FAIR      43  29  57 NW3       30.30R
CODY           FAIR      59  39  47 CALM      30.22R
GREYBULL       FAIR      59  39  47 SE5       30.14R
WORLAND        FAIR      60  37  42 S5        30.15R
SHERIDAN       FAIR      62  41  46 CALM      30.17R
BUFFALO        FAIR      61  37  41 N9        30.20R
GILLETTE       FAIR      65  39  38 NW13      30.14R
HULETT         FAIR      63  46  55 N7        30.15R
NEWCASTLE      FAIR      68  54  60 NW13      30.08R

$$
WYZ014>020-022>026-101>103-211500-
CENTRAL WYOMING

CITY           SKY/WX    TMP DP  RH WIND       PRES   REMARKS
BIG PINEY      FAIR      47  32  56 CALM      30.31R
PINEDALE       FAIR      41  32  70 NW5       30.32S
DUBOIS         FAIR      45  27  49 NW10      30.32R
LANDER           N/A    N/A N/A N/A MISG      30.21R
RIVERTON       FAIR      64  35  34 NW5       30.21R
CASPER         FAIR      58  41  53 W3        30.20R
DOUGLAS        FAIR      61  42  49 NW6       30.17R

$$
WYZ021-027>030-104>119-211500-
SOUTHERN WYOMING

CITY           SKY/WX    TMP DP  RH WIND       PRES   REMARKS
EVANSTON       FAIR      56  34  43 SE3       30.30R
KEMMERER         N/A     54  34  47 N12       30.31S
FORT BRIDGER   FAIR      61  32  34 W7        30.32R
ROCK SPRINGS   FAIR      59  37  44 CALM      30.28R
RAWLINS        FAIR      58  37  45 CALM      30.29R
SARATOGA       FAIR      54  37  54 S9        30.31R
LARAMIE        FAIR      57  38  48 E3        30.28R
CHEYENNE       FAIR      67  41  38 NW9       30.17R
TORRINGTON     FAIR      61  57  87 W7        30.06R
PINE BLUFFS    FAIR      63  48  59 NW3       30.12S

$$




USA.gov is the U.S. government's official web portal to all federal, state and local government web resources and services.